KI0MQ Weather Reports


time (UTC)temp
F
wind
direction
speed
knots
gust
knots
rain 1hr
in
rain 24hr
in
rain mn
in
humidity
%
barometer
mb
20260506045003 48 345 0.0 0.9 0.00 0.01 0.01 52 1014.7
20260506044508 48 345 0.0 0.9 0.00 0.03 0.01 52 1014.7
20260506044003 48 345 0.0 0.9 0.00 0.03 0.01 52 1014.7
20260506043504 49 345 0.0 0.9 0.00 0.03 0.01 52 1014.6
20260506043008 49 350 0.0 0.9 0.00 0.03 0.01 50 1014.7
20260506042503 49 3 0.0 0.9 0.00 0.04 0.01 49 1014.7
20260506042003 49 3 0.0 0.9 0.00 0.04 0.01 49 1014.6
20260506041508 49 2 0.0 0.9 0.00 0.04 0.01 53 1014.6
20260506041004 49 4 0.0 1.7 0.00 0.04 0.01 48 1014.4
20260506040504 49 7 0.0 1.7 0.00 0.04 0.01 48 1014.5
20260506040008 50 9 0.0 0.9 0.00 0.04 0.01 47 1014.4
20260506035503 50 9 0.0 0.9 0.00 0.04 0.01 48 1014.4
20260506035003 50 9 0.0 0.9 0.00 0.04 0.01 46 1014.5
20260506034508 50 346 0.0 1.7 0.00 0.04 0.01 46 1014.5
20260506034003 50 353 0.0 1.7 0.00 0.04 0.01 45 1014.4
20260506033008 50 16 0.0 0.9 0.00 0.04 0.01 44 1014.3
20260506032503 51 5 0.0 1.7 0.00 0.04 0.01 44 1014.2
20260506032003 51 1 0.9 3.5 0.00 0.04 0.01 44 1014.1
20260506031005 51 345 0.9 4.3 0.00 0.04 0.01 43 1014.0
20260506030504 51 348 0.9 3.5 0.00 0.04 0.01 43 1013.9
20260506030008 51 6 0.9 3.5 0.00 0.04 0.01 43 1013.8
20260506025503 51 7 0.9 3.5 0.00 0.04 0.01 43 1013.8
20260506025004 51 3 0.9 5.2 0.00 0.04 0.01 43 1013.7
20260506024507 52 347 0.9 5.2 0.00 0.04 0.01 43 1013.7
20260506024004 52 349 0.9 4.3 0.00 0.04 0.01 42 1013.6
20260506023504 52 359 0.9 4.3 0.00 0.04 0.01 42 1013.5
20260506023008 52 356 0.9 5.2 0.00 0.04 0.01 42 1013.5
20260506022504 52 10 0.9 5.2 0.00 0.04 0.01 42 1013.4
20260506021509 52 4 0.9 4.3 0.00 0.04 0.01 41 1013.3
20260506021003 52 15 0.9 3.5 0.00 0.04 0.01 41 1013.2
20260506020008 52 16 0.9 4.3 0.00 0.04 0.01 40 1013.2
20260506015505 53 10 0.9 3.5 0.00 0.04 0.01 41 1013.1
20260506015003 53 359 1.7 5.2 0.00 0.04 0.01 40 1013.1
20260506014509 53 356 1.7 5.2 0.00 0.04 0.01 40 1012.9
20260506014003 53 355 1.7 5.2 0.00 0.04 0.01 40 1012.8
20260506013504 53 357 1.7 5.2 0.00 0.04 0.01 40 1012.7
20260506012503 53 9 1.7 7.0 0.00 0.04 0.01 40 1012.6
20260506012003 53 17 1.7 7.8 0.00 0.04 0.01 40 1012.6
20260506011508 53 15 1.7 8.7 0.00 0.04 0.01 40 1012.6
20260506011003 54 356 1.7 8.7 0.00 0.04 0.01 40 1012.5
20260506010504 54 353 2.6 8.7 0.00 0.04 0.01 40 1012.4
20260506005504 54 358 2.6 7.8 0.00 0.04 0.01 40 1012.5
20260506005003 54 355 2.6 6.1 0.00 0.04 0.01 41 1012.5
20260506003503 54 358 2.6 6.1 0.00 0.04 0.01 39 1012.3
20260506003008 54 16 2.6 10.4 0.00 0.04 0.01 39 1012.2
20260506002503 54 7 3.5 10.4 0.00 0.04 0.01 39 1012.3
20260506002004 54 353 3.5 9.6 0.00 0.04 0.01 39 1012.1
20260506001508 55 356 1.7 8.7 0.00 0.04 0.01 39 1012.2
20260506001003 55 359 2.6 8.7 0.00 0.04 0.01 40 1012.2
20260506000008 55 344 2.6 11.3 0.00 0.04 0.01 39 1012.2
20260505235503 55 355 2.6 7.8 0.00 0.04 0.01 40 1012.1
20260505235005 55 4 2.6 9.6 0.00 0.04 0.01 39 1012.1
20260505234508 55 10 2.6 12.2 0.00 0.04 0.01 39 1012.1
20260505234003 55 3 2.6 12.2 0.00 0.04 0.01 38 1012.1
20260505233504 55 343 3.5 12.2 0.00 0.04 0.01 38 1012.0
20260505233008 56 349 3.5 11.3 0.00 0.04 0.01 39 1011.9
20260505232504 56 5 3.5 12.2 0.00 0.04 0.01 39 1011.9
20260505232003 56 357 2.6 12.2 0.00 0.04 0.01 38 1011.9
20260505231508 56 354 2.6 7.8 0.00 0.04 0.01 40 1011.8
20260505231003 56 357 4.3 13.0 0.00 0.04 0.01 40 1011.8
20260505230009 57 351 3.5 10.4 0.00 0.04 0.01 38 1011.8
20260505225504 57 350 2.6 7.8 0.00 0.04 0.01 37 1011.8
20260505225003 58 345 2.6 7.8 0.00 0.04 0.01 38 1011.7
20260505224508 58 336 1.7 7.8 0.00 0.04 0.01 38 1011.6
20260505223503 58 332 1.7 7.0 0.00 0.04 0.01 39 1011.6
20260505223008 58 341 2.6 7.8 0.00 0.04 0.01 38 1011.7
20260505222504 58 7 2.6 11.3 0.00 0.04 0.01 38 1011.6
20260505222004 58 6 3.5 11.3 0.00 0.04 0.01 38 1011.6
20260505221508 57 353 3.5 10.4 0.00 0.04 0.01 39 1011.5
20260505220503 58 341 2.6 9.6 0.00 0.04 0.01 39 1011.5
20260505220008 58 324 1.7 7.8 0.00 0.04 0.01 39 1011.4
20260505215505 58 318 2.6 7.8 0.00 0.04 0.01 40 1011.6
20260505215003 57 320 2.6 7.8 0.00 0.04 0.01 39 1011.5
20260505214508 58 324 2.6 6.1 0.00 0.04 0.01 40 1011.6
20260505214003 58 342 2.6 10.4 0.00 0.04 0.01 40 1011.6
20260505213503 57 351 3.5 10.4 0.00 0.04 0.01 40 1011.6
20260505213009 57 352 2.6 8.7 0.00 0.04 0.01 40 1011.7
20260505212503 58 341 1.7 8.7 0.00 0.04 0.01 40 1011.8
20260505212003 58 330 0.9 7.0 0.00 0.04 0.01 40 1011.9
20260505211508 57 331 1.7 6.1 0.00 0.04 0.01 41 1011.9
20260505211003 57 340 2.6 7.0 0.00 0.04 0.01 40 1012.0
20260505210504 58 343 1.7 7.0 0.00 0.04 0.01 40 1012.0
20260505210009 58 341 1.7 6.1 0.00 0.04 0.01 41 1012.1
20260505205503 58 9 3.5 10.4 0.00 0.04 0.01 41 1012.1
20260505205004 58 11 4.3 10.4 0.00 0.04 0.01 40 1012.2
20260505204508 58 350 3.5 10.4 0.00 0.04 0.01 40 1012.3
20260505204003 58 335 3.5 8.7 0.00 0.04 0.01 39 1012.2
20260505203504 59 348 3.5 7.8 0.00 0.04 0.01 39 1012.1
20260505202503 59 321 2.6 9.6 0.00 0.04 0.01 39 1012.2
20260505202003 60 300 1.7 7.0 0.00 0.04 0.01 38 1012.3
20260505201508 60 295 1.7 6.1 0.00 0.04 0.01 40 1012.3
20260505200503 59 356 2.6 8.7 0.00 0.04 0.01 38 1012.4
20260505200008 59 355 2.6 9.6 0.00 0.04 0.01 39 1012.2
20260505195503 59 347 1.7 9.6 0.00 0.04 0.01 40 1012.4
20260505194508 58 357 2.6 7.8 0.00 0.04 0.01 42 1012.4
20260505194005 59 357 1.7 7.8 0.00 0.04 0.01 41 1012.4
20260505193503 58 351 2.6 7.8 0.00 0.04 0.01 41 1012.6
20260505193009 58 342 2.6 9.6 0.00 0.04 0.01 40 1012.6
20260505192504 58 339 2.6 10.4 0.00 0.04 0.01 41 1012.7
20260505192003 58 330 2.6 10.4 0.00 0.04 0.01 40 1012.7
20260505191508 58 320 1.7 7.0 0.00 0.04 0.01 41 1012.7
20260505190503 58 9 2.6 7.8 0.00 0.04 0.01 44 1012.7
20260505190008 57 19 2.6 7.8 0.00 0.04 0.01 41 1012.7
20260505185504 57 8 1.7 7.8 0.00 0.04 0.01 41 1012.8
20260505185003 57 337 1.7 7.0 0.00 0.04 0.01 43 1012.9
20260505184508 57 2 1.7 7.8 0.00 0.04 0.01 44 1012.8
20260505184003 57 18 1.7 7.8 0.00 0.04 0.01 46 1012.9
20260505183505 57 21 1.7 5.2 0.00 0.04 0.01 44 1012.8
20260505182504 56 355 2.6 7.8 0.00 0.04 0.01 44 1012.9
20260505182003 56 354 1.7 6.1 0.00 0.04 0.01 44 1013.1
20260505181508 56 354 0.9 6.1 0.00 0.04 0.01 45 1013.1
20260505181005 56 166 0.9 2.6 0.00 0.04 0.01 47 1013.2
20260505180503 56 200 0.9 3.5 0.00 0.04 0.01 47 1013.1
20260505175503 56 336 0.9 6.1 0.00 0.04 0.01 48 1013.3
20260505175003 56 341 1.7 6.1 0.00 0.04 0.01 47 1013.3
20260505174508 56 314 1.7 5.2 0.00 0.04 0.01 47 1013.1
20260505174003 56 358 1.7 6.1 0.00 0.04 0.01 49 1013.2
20260505173505 56 350 1.7 6.1 0.00 0.04 0.01 48 1013.3
20260505173008 56 333 1.7 6.1 0.00 0.04 0.01 50 1013.4
20260505172504 55 345 1.7 6.1 0.00 0.04 0.01 48 1013.4
20260505171508 55 327 0.9 4.3 0.00 0.04 0.01 52 1013.6
20260505171003 55 356 0.9 5.2 0.00 0.04 0.01 52 1013.5
20260505170008 53 354 1.7 5.2 0.00 0.04 0.01 53 1013.6
20260505165503 53 332 0.9 4.3 0.00 0.04 0.01 54 1013.8
20260505165004 53 323 0.9 5.2 0.00 0.04 0.01 58 1013.8
20260505164508 52 323 1.7 5.2 0.00 0.04 0.01 58 1013.7
20260505164003 53 328 1.7 5.2 0.00 0.04 0.01 58 1013.7
20260505163503 53 332 0.9 5.2 0.00 0.04 0.01 60 1013.7
20260505162003 52 295 0.0 2.6 0.00 0.04 0.01 63 1013.3
20260505161508 51 317 0.9 3.5 0.00 0.04 0.01 65 1013.2
20260505161003 51 316 0.9 3.5 0.00 0.04 0.01 64 1013.2
20260505160505 50 298 0.9 3.5 0.00 0.04 0.01 65 1013.1
20260505152504 49 356 1.7 5.2 0.00 0.04 0.01 67 1013.1
20260505152003 49 339 1.7 5.2 0.00 0.04 0.01 66 1013.0
20260505151508 49 341 1.7 5.2 0.00 0.04 0.01 66 1013.0
20260505151003 49 357 1.7 4.3 0.00 0.04 0.01 65 1012.9
20260505150503 49 355 1.7 7.0 0.00 0.04 0.01 65 1012.9
20260505140503 48 294 0.0 3.5 0.00 0.04 0.01 68 1012.6
20260505125003 48 355 0.0 2.6 0.00 0.04 0.01 77 1011.6
20260505124508 48 356 0.0 1.7 0.00 0.04 0.01 78 1011.5
20260505124003 47 356 0.0 1.7 0.00 0.04 0.01 79 1011.2
20260505123503 47 0 0.0 0.0 0.00 0.04 0.01 79 1011.1
20260505123008 47 0 0.0 0.0 0.00 0.04 0.01 79 1011.2
20260505122503 47 0 0.0 0.0 0.00 0.04 0.01 78 1011.1
20260505122004 47 0 0.0 0.0 0.00 0.04 0.01 79 1010.9
20260505121508 46 0 0.0 0.0 0.00 0.04 0.01 80 1010.8
20260505121003 46 356 0.0 0.9 0.00 0.04 0.01 80 1010.8
20260505120008 46 356 0.0 0.9 0.00 0.04 0.01 82 1010.6
20260505115505 46 0 0.0 0.0 0.00 0.04 0.01 81 1010.4
20260505115003 46 0 0.0 0.0 0.00 0.04 0.01 81 1010.2
20260505114003 46 0 0.0 0.0 0.00 0.04 0.01 81 1009.9
20260505113504 46 0 0.0 0.0 0.00 0.04 0.01 82 1010.1
20260505113009 46 0 0.0 0.0 0.00 0.04 0.01 84 1010.0
20260505112503 46 0 0.0 0.0 0.00 0.04 0.01 84 1010.0
20260505112003 45 0 0.0 0.0 0.00 0.04 0.01 86 1010.1
20260505111510 45 0 0.0 0.0 0.00 0.04 0.01 88 1010.1
20260505111004 45 0 0.0 0.0 0.00 0.04 0.01 89 1010.1
20260505110503 45 0 0.0 0.0 0.00 0.04 0.01 89 1010.2
20260505101508 46 0 0.0 0.0 0.00 0.04 0.01 88 1010.4
20260505101004 46 0 0.0 0.0 0.00 0.04 0.01 88 1010.4
20260505100503 46 0 0.0 0.0 0.00 0.04 0.01 88 1010.3
20260505100008 46 0 0.0 0.0 0.00 0.04 0.01 88 1010.4
20260505095003 47 0 0.0 0.0 0.00 0.04 0.01 88 1010.4
20260505094509 47 0 0.0 0.0 0.00 0.04 0.01 88 1010.3
20260505094004 47 0 0.0 0.0 0.00 0.04 0.01 88 1010.3
20260505093503 47 0 0.0 0.0 0.00 0.04 0.01 88 1010.2
20260505093008 47 356 0.0 0.9 0.00 0.04 0.01 88 1010.1
20260505092503 47 356 0.0 0.9 0.00 0.04 0.01 88 1010.0
20260505091509 47 356 0.0 0.9 0.00 0.04 0.01 88 1009.5
20260505091004 47 0 0.0 0.0 0.00 0.04 0.01 87 1009.5
20260505090503 47 0 0.0 0.0 0.00 0.04 0.01 87 1009.5
20260505090008 48 0 0.0 0.0 0.00 0.04 0.01 87 1009.6
20260505085504 48 0 0.0 0.0 0.00 0.04 0.01 87 1009.5
20260505085003 48 0 0.0 0.0 0.00 0.04 0.01 87 1009.4
20260505084508 48 356 0.0 0.9 0.00 0.04 0.01 87 1009.4
20260505084003 48 356 0.0 0.9 0.00 0.04 0.01 87 1009.4
20260505083504 48 356 0.0 0.9 0.00 0.04 0.01 87 1009.4
20260505083009 48 356 0.0 0.9 0.00 0.04 0.01 88 1009.5
20260505082503 48 0 0.0 0.0 0.00 0.04 0.01 88 1009.4
20260505081508 48 0 0.0 0.0 0.00 0.04 0.01 88 1009.3
20260505081004 48 0 0.0 0.0 0.00 0.04 0.01 89 1009.2
20260505080504 48 0 0.0 0.0 0.00 0.04 0.01 88 1008.9
20260505080008 48 0 0.0 0.0 0.00 0.04 0.01 88 1008.8
20260505075504 48 0 0.0 0.0 0.00 0.04 0.01 88 1008.7
20260505075004 48 356 0.0 0.9 0.00 0.04 0.01 88 1008.7
20260505074510 48 356 0.0 0.9 0.00 0.04 0.01 87 1008.8
20260505073503 48 356 0.0 0.9 0.00 0.04 0.01 87 1008.7
20260505073008 48 356 0.0 0.9 0.00 0.04 0.01 87 1008.8
20260505072504 48 0 0.0 0.0 0.00 0.04 0.01 87 1008.8
20260505072003 48 0 0.0 0.0 0.00 0.04 0.01 88 1008.8
20260505071508 48 0 0.0 0.0 0.00 0.04 0.01 87 1008.7
20260505071003 48 0 0.0 0.0 0.01 0.04 0.01 87 1008.6
20260505065503 48 0 0.0 0.0 0.01 0.04 0.01 85 1008.7
20260505065004 48 0 0.0 0.0 0.01 0.04 0.01 85 1008.2
20260505064004 48 356 0.0 0.9 0.01 0.04 0.01 84 1008.2
20260505063503 48 356 0.0 0.9 0.01 0.04 0.01 83 1008.4
20260505063009 48 356 0.0 0.9 0.01 0.04 0.01 83 1008.7
20260505062503 49 356 0.0 0.9 0.01 0.04 0.01 82 1008.4
20260505061004 49 356 0.0 1.7 0.00 0.03 0.00 78 1009.2
20260505060503 49 356 0.0 1.7 0.00 0.03 0.00 76 1009.2
20260505055503 49 356 0.0 0.9 0.00 0.03 0.00 76 1008.5
20260505055003 50 356 0.0 0.9 0.00 0.03 0.00 75 1008.7
20260505054508 50 356 0.0 1.7 0.02 0.03 0.00 75 1008.9
20260505054005 50 351 0.9 3.5 0.02 0.03 0.00 74 1008.8
20260505053503 50 356 0.9 3.5 0.02 0.03 0.00 73 1008.8